This is the latest recevied weather packets stored in our database for station/object K5WNG. If no packets are shown the sender has not sent any weather packets the latest 10 day(s).
| Time | Temp. | Humidity | Pressure | Rain* | Wind** | Luminosity | Snow |
|---|---|---|---|---|---|---|---|
| 1777649432 | 13.89° C | 99% | 1014 hPa | 1.27 mm | - | 45 W/m² | - |
| 1777649130 | 13.89° C | 99% | 1014.1 hPa | 1.78 mm | - | 35 W/m² | - |
| 1777648832 | 13.89° C | 99% | 1014 hPa | 2.54 mm | - | 33 W/m² | - |
| 1777648529 | 13.89° C | 99% | 1013.7 hPa | 3.05 mm | - | 43 W/m² | - |
| 1777648233 | 13.89° C | 99% | 1013.5 hPa | 3.81 mm | - | 47 W/m² | - |
| 1777647933 | 13.89° C | 99% | 1013.7 hPa | 4.57 mm | - | 44 W/m² | - |
| 1777647630 | 13.89° C | 99% | 1013.5 hPa | 4.57 mm | - | 63 W/m² | - |
| 1777647330 | 13.89° C | 99% | 1013.4 hPa | 4.83 mm | - | 67 W/m² | - |
| 1777647035 | 13.89° C | 99% | 1013.5 hPa | 5.84 mm | - | 55 W/m² | - |
| 1777646733 | 13.89° C | 99% | 1013.7 hPa | 6.35 mm | - | 58 W/m² | - |
| 1777646419 | 13.89° C | 99% | 1013.4 hPa | 6.86 mm | - | 85 W/m² | - |
| 1777646116 | 13.89° C | 99% | 1013 hPa | 6.86 mm | - | 89 W/m² | - |
| 1777645819 | 13.89° C | 99% | 1012.5 hPa | 6.86 mm | - | 73 W/m² | - |
| 1777645516 | 13.89° C | 99% | 1011.9 hPa | 6.35 mm | - | 49 W/m² | - |
| 1777645230 | 13.89° C | 99% | 1013 hPa | 5.84 mm | - | 34 W/m² | - |
| 1777644916 | 13.89° C | 99% | 1012.9 hPa | 5.84 mm | - | 29 W/m² | - |
| 1777644615 | 14.44° C | 99% | 1014.1 hPa | 5.33 mm | - | 24 W/m² | - |
| 1777644319 | 14.44° C | 99% | 1015.8 hPa | 4.83 mm | - | 12 W/m² | - |
| 1777644016 | 14.44° C | 99% | 1015.5 hPa | 4.57 mm | - | 12 W/m² | - |
| 1777643720 | 14.44° C | 99% | 1015.1 hPa | 4.06 mm | - | 10 W/m² | - |
| 1777643420 | 14.44° C | 99% | 1015 hPa | 3.05 mm | - | 9 W/m² | - |
| 1777643116 | 14.44° C | 99% | 1015.8 hPa | 2.54 mm | - | 10 W/m² | - |
| 1777642816 | 14.44° C | 99% | 1015.2 hPa | 2.03 mm | - | 15 W/m² | - |
| 1777642521 | 14.44° C | 99% | 1014.5 hPa | 2.03 mm | - | 14 W/m² | - |
| 1777642217 | 14.44° C | 99% | 1014.3 hPa | 2.03 mm | - | 12 W/m² | - |
* Rain latest hour (hover to see other rain measurements)
** Current wind speed in m/s (hover to see current wind gust speed)